Location: Bad Salzschlirf
(50.3750°N, 9.3000°E)
Time: 03:26:44
(UTC+02:00)

ISS - Pass Details

Date: 08 July 2025
Orbit: 413 x 417 km, 51.6° (Epoch: 12 July)

Event Time Altitude Azimuth Distance (km) Brightness Sun altitude
Rises 04:25:45 0° 286° (WNW) 2,360 -0.2 -7.3°
Reaches altitude 10° 04:27:58 10° 276° (W) 1,494 -1.3 -7.0°
Maximum altitude 04:31:00 32° 212° (SSW) 740 -3.0 -6.7°
Drops below altitude 10° 04:34:02 10° 147° (SSE) 1,489 -1.1 -6.4°
Sets 04:36:14 0° 137° (SE) 2,349 0.0 -6.2°
